Chippewa, MI

8:28 PM EST on December 11, 2017 (GMT -0500)
Chippewa County International

Weather History for KCIU - March, 2014

Change the Weather History Date:

Thursday, March 20, 2014

  Actual Average Record
Temperature  
Mean Temperature 24 °F -  
Max Temperature 30 °F 38 °F 80 °F (2012)
Min Temperature 17 °F 15 °F -3 °F (1992)
Degree Days  
Heating Degree Days 42    
Moisture  
Dew Point 22 °F    
Average Humidity 87    
Maximum Humidity 100    
Minimum Humidity 64    
Precipitation  
Precipitation 0.01 in - - ()
Sea Level Pressure  
Sea Level Pressure 29.80 in    
Wind  
Wind Speed 15 mph (WNW)    
Max Wind Speed 22 mph    
Max Gust Speed 29 mph    
Visibility 7 miles    
Events      
Averages and records for this station are not official NWS values.
T = Trace of Precipitation, MM = Missing Value Source: NWS Daily Summary

Daily Weather History Graph

Daily Weather History Graph

Search for Another Location

Airport or City:

Trip Planner

Search our weather history database for the weather conditions in past years. The results will help you decide how hot, cold, wet, or windy it might be!

Date:

Astronomy

Mar. 20, 2014 Rise Set
Actual Time 7:40 AM EDT 7:50 PM EDT
Civil Twilight 7:10 AM EDT 8:20 PM EDT
Nautical Twilight 6:35 AM EDT 8:55 PM EDT
Astronomical Twilight 5:59 AM EDT 9:32 PM EDT
Moon No Moon Rise 9:33 AM EDT (3/20)
Length of Visible Light 13h 09m
Length of Day
12h 09m
Waning Gibbous, 84% of the Moon is Illuminated
Mar 20
Waning Gibbous
Mar 23
Last Quarter
Mar 30
New
Apr 7
First Quarter
Apr 15
Full

Hourly Weather History & Observations

Time (EDT) Temp. Windchill Dew Point Humidity Pressure Visibility Wind Dir Wind Speed Gust Speed Precip Events Conditions
12:15 AM 30.2 °F 21.3 °F 30.2 °F 100% 29.61 in 4.0 mi West 10.4 mph - N/A   Overcast
12:35 AM 30.2 °F 21.3 °F 28.4 °F 93% 29.61 in 6.0 mi West 10.4 mph - N/A   Overcast
12:55 AM 30.2 °F 19.3 °F 28.4 °F 93% 29.61 in 3.0 mi WNW 15.0 mph - N/A   Overcast
1:15 AM 30.2 °F 19.8 °F 30.2 °F 100% 29.62 in 3.0 mi West 13.8 mph - N/A   Overcast
1:35 AM 30.2 °F 18.5 °F 30.2 °F 100% 29.61 in 5.0 mi WNW 17.3 mph 20.7 mph N/A   Overcast
1:55 AM 30.2 °F 19.3 °F 28.4 °F 93% 29.62 in 3.0 mi WNW 15.0 mph - N/A   Overcast
2:15 AM 30.2 °F 18.9 °F 28.4 °F 93% 29.62 in 3.0 mi WNW 16.1 mph 23.0 mph N/A   Overcast
2:35 AM 30.2 °F 18.1 °F 30.2 °F 100% 29.62 in 4.0 mi WNW 18.4 mph 24.2 mph N/A   Overcast
2:55 AM 30.2 °F 18.9 °F 30.2 °F 100% 29.62 in 5.0 mi WNW 16.1 mph 27.6 mph N/A   Overcast
3:15 AM 30.2 °F 17.4 °F 30.2 °F 100% 29.62 in 7.0 mi WNW 20.7 mph 24.2 mph N/A   Overcast
3:35 AM 30.2 °F 18.5 °F 28.4 °F 93% 29.63 in 4.0 mi WNW 17.3 mph 20.7 mph N/A   Overcast
3:55 AM 30.2 °F 18.9 °F 28.4 °F 93% 29.64 in 5.0 mi WNW 16.1 mph 25.3 mph N/A   Overcast
4:15 AM 28.4 °F 16.2 °F 28.4 °F 100% 29.64 in 3.0 mi WNW 17.3 mph 25.3 mph N/A   Overcast
4:35 AM 28.4 °F 15.1 °F 26.6 °F 93% 29.64 in 4.0 mi WNW 20.7 mph 26.5 mph N/A   Overcast
4:55 AM 28.4 °F 15.8 °F 28.4 °F 100% 29.65 in 4.0 mi WNW 18.4 mph 27.6 mph N/A   Overcast
5:15 AM 28.4 °F 17.0 °F 26.6 °F 93% 29.66 in 5.0 mi WNW 15.0 mph 21.9 mph N/A   Overcast
5:35 AM 26.6 °F 13.8 °F 24.8 °F 93% 29.67 in 5.0 mi WNW 17.3 mph 26.5 mph N/A   Overcast
5:55 AM 26.6 °F 15.7 °F 26.6 °F 100% 29.68 in 9.0 mi WNW 12.7 mph 26.5 mph N/A   Overcast
6:15 AM 26.6 °F 13.8 °F 24.8 °F 93% 29.69 in 8.0 mi WNW 17.3 mph 25.3 mph N/A   Overcast
6:35 AM 26.6 °F 13.4 °F 24.8 °F 93% 29.69 in 10.0 mi NW 18.4 mph 24.2 mph N/A   Overcast
6:55 AM 26.6 °F 14.3 °F 24.8 °F 93% 29.70 in 5.0 mi WNW 16.1 mph 21.9 mph N/A   Overcast
7:15 AM 24.8 °F 12.4 °F 24.8 °F 100% 29.71 in 5.0 mi NW 15.0 mph - N/A   Overcast
7:35 AM 24.8 °F 11.9 °F 24.8 °F 100% 29.71 in 9.0 mi NW 16.1 mph 20.7 mph N/A   Overcast
7:55 AM 24.8 °F 13.4 °F 23.0 °F 93% 29.73 in 7.0 mi WNW 12.7 mph - N/A   Overcast
8:15 AM 24.8 °F 10.3 °F 24.8 °F 100% 29.73 in 4.0 mi WNW 20.7 mph 25.3 mph N/A   Overcast
8:35 AM 24.8 °F 10.7 °F 24.8 °F 100% 29.74 in 5.0 mi WNW 19.6 mph - N/A   Overcast
8:55 AM 24.8 °F 11.5 °F 24.8 °F 100% 29.73 in 3.0 mi WNW 17.3 mph 24.2 mph N/A   Overcast
9:15 AM 24.8 °F 10.7 °F 24.8 °F 100% 29.74 in 5.0 mi WNW 19.6 mph 26.5 mph N/A   Overcast
9:35 AM 24.8 °F 10.7 °F 24.8 °F 100% 29.76 in 9.0 mi NW 19.6 mph - N/A   Overcast
9:55 AM 24.8 °F 11.9 °F 24.8 °F 100% 29.77 in 8.0 mi WNW 16.1 mph 24.2 mph N/A   Overcast
10:15 AM 24.8 °F 10.3 °F 23.0 °F 93% 29.78 in 4.0 mi NW 20.7 mph - N/A   Overcast
10:35 AM 24.8 °F 13.4 °F 23.0 °F 93% 29.79 in 3.0 mi NW 12.7 mph 20.7 mph N/A   Overcast
10:55 AM 26.6 °F 13.4 °F 23.0 °F 86% 29.79 in 2.0 mi WNW 18.4 mph 25.3 mph N/A   Overcast
11:15 AM 24.8 °F 11.9 °F 23.0 °F 93% 29.80 in 9.0 mi NW 16.1 mph 25.3 mph N/A   Overcast
11:35 AM 24.8 °F 11.9 °F 23.0 °F 93% 29.81 in 10.0 mi NW 16.1 mph 21.9 mph N/A   Overcast
11:55 AM 24.8 °F 10.7 °F 23.0 °F 93% 29.81 in 9.0 mi WNW 19.6 mph - N/A   Overcast
12:15 PM 24.8 °F 11.5 °F 21.2 °F 86% 29.82 in 7.0 mi NW 17.3 mph - N/A   Overcast
12:35 PM 24.8 °F 11.9 °F 21.2 °F 86% 29.83 in 3.0 mi WNW 16.1 mph 23.0 mph N/A   Overcast
12:55 PM 24.8 °F 11.5 °F 21.2 °F 86% 29.82 in 6.0 mi WNW 17.3 mph 23.0 mph N/A   Overcast
1:15 PM 24.8 °F 12.4 °F 21.2 °F 86% 29.83 in 5.0 mi NW 15.0 mph - N/A   Overcast
1:35 PM 26.6 °F 14.7 °F 21.2 °F 80% 29.84 in 4.0 mi NW 15.0 mph 19.6 mph N/A   Overcast
1:55 PM 26.6 °F 13.4 °F 21.2 °F 80% 29.83 in 5.0 mi WNW 18.4 mph 24.2 mph N/A   Overcast
2:15 PM 26.6 °F 12.4 °F 21.2 °F 80% 29.84 in 5.0 mi WNW 21.9 mph 25.3 mph N/A   Overcast
2:35 PM 26.6 °F 13.4 °F 21.2 °F 80% 29.84 in 10.0 mi WNW 18.4 mph 25.3 mph N/A   Overcast
2:55 PM 28.4 °F 16.2 °F 21.2 °F 74% 29.84 in 10.0 mi NW 17.3 mph 26.5 mph N/A   Overcast
3:15 PM 28.4 °F 16.2 °F 21.2 °F 74% 29.84 in 10.0 mi NW 17.3 mph 21.9 mph N/A   Overcast
3:35 PM 28.4 °F 15.1 °F 21.2 °F 74% 29.84 in 10.0 mi NW 20.7 mph 27.6 mph N/A   Overcast
3:55 PM 28.4 °F 17.5 °F 21.2 °F 74% 29.86 in 10.0 mi NW 13.8 mph 20.7 mph N/A   Overcast
4:15 PM 28.4 °F 15.4 °F 21.2 °F 74% 29.85 in 10.0 mi NW 19.6 mph 23.0 mph N/A   Overcast
4:35 PM 26.6 °F 13.1 °F 21.2 °F 80% 29.87 in 10.0 mi NW 19.6 mph 25.3 mph N/A   Mostly Cloudy
4:55 PM 26.6 °F 13.4 °F 21.2 °F 80% 29.86 in 10.0 mi NW 18.4 mph 24.2 mph N/A   Mostly Cloudy
5:15 PM 28.4 °F 16.2 °F 19.4 °F 69% 29.87 in 10.0 mi WNW 17.3 mph 28.8 mph N/A   Partly Cloudy
5:35 PM 28.4 °F 15.1 °F 19.4 °F 69% 29.87 in 10.0 mi WNW 20.7 mph 26.5 mph N/A   Scattered Clouds
5:55 PM 28.4 °F 15.8 °F 19.4 °F 69% 29.89 in 10.0 mi NW 18.4 mph 23.0 mph N/A   Scattered Clouds
6:15 PM 28.4 °F 15.8 °F 19.4 °F 69% 29.90 in 10.0 mi WNW 18.4 mph 21.9 mph N/A   Partly Cloudy
6:35 PM 28.4 °F 18.0 °F 19.4 °F 69% 29.91 in 10.0 mi NW 12.7 mph 20.7 mph N/A   Clear
6:55 PM 28.4 °F 16.2 °F 17.6 °F 64% 29.92 in 10.0 mi NW 17.3 mph 20.7 mph N/A   Clear
7:15 PM 26.6 °F 15.2 °F 17.6 °F 69% 29.93 in 10.0 mi NW 13.8 mph 19.6 mph N/A   Clear
7:35 PM 26.6 °F 14.7 °F 15.8 °F 64% 29.94 in 10.0 mi NW 15.0 mph - N/A   Clear
7:55 PM 24.8 °F 13.4 °F 15.8 °F 69% 29.94 in 10.0 mi WNW 12.7 mph - N/A   Clear
8:15 PM 23.0 °F 13.9 °F 15.8 °F 74% 29.95 in 10.0 mi WNW 8.1 mph - N/A   Clear
8:35 PM 21.2 °F 12.6 °F 15.8 °F 80% 29.95 in 10.0 mi WNW 6.9 mph - N/A   Clear
8:55 PM 21.2 °F 12.6 °F 15.8 °F 80% 29.96 in 10.0 mi WNW 6.9 mph - N/A   Clear
9:15 PM 21.2 °F 14.9 °F 15.8 °F 80% 29.96 in 10.0 mi WNW 4.6 mph - N/A   Clear
9:35 PM 19.4 °F 10.4 °F 15.8 °F 86% 29.97 in 10.0 mi WNW 6.9 mph - N/A   Clear
9:55 PM 21.2 °F 11.7 °F 15.8 °F 80% 29.97 in 10.0 mi WNW 8.1 mph - N/A   Clear
10:15 PM 21.2 °F 12.6 °F 15.8 °F 80% 29.98 in 10.0 mi West 6.9 mph - N/A   Clear
10:35 PM 19.4 °F 11.5 °F 15.8 °F 86% 29.98 in 10.0 mi WNW 5.8 mph - N/A   Clear
10:55 PM 19.4 °F 11.5 °F 15.8 °F 86% 29.98 in 10.0 mi West 5.8 mph - N/A   Clear
11:15 PM 19.4 °F 10.4 °F 15.8 °F 86% 29.99 in 10.0 mi West 6.9 mph - N/A   Clear
11:35 PM 17.6 °F 10.7 °F 14.0 °F 86% 30.00 in 10.0 mi West 4.6 mph - N/A   Clear
11:55 PM 17.6 °F 9.3 °F 14.0 °F 86% 30.00 in 10.0 mi West 5.8 mph - N/A   Clear